When you browse on this site, cookies collect data to enhance your experience and personalize the content and advertising you see.
Visit our Privacy Policy to learn more. By continuing to use the site, you agree to this use of cookies and data.
  • In Spain
  • List of Countries
  • For 7 days
  • Water Temperature
  • Satellite Maps
  • Weather Map
  • Weather Widgets
  • user-avatar
    Login

    Hourly Weather Porod

    Today, 19 December, Wednesday

    Time Temperature Precipitation Wind Pressure Humidity
    00:00 +17°C° 0 mm 4 mps 735 mmHg 22%
    01:00 +15°C° 0 mm 4 mps 735 mmHg 25%
    02:00 +15°C° 0 mm 4 mps 734 mmHg 26%
    03:00 +14°C° 0 mm 4 mps 734 mmHg 28%
    04:00 +14°C° 0 mm 4 mps 734 mmHg 29%
    05:00 +13°C° 0 mm 4 mps 734 mmHg 31%
    06:00 +13°C° 0 mm 5 mps 734 mmHg 32%
    07:00 +13°C° 0 mm 5 mps 735 mmHg 33%
    08:00 +15°C° 0 mm 6 mps 735 mmHg 29%
    09:00 +18°C° 0 mm 7 mps 735 mmHg 24%
    10:00 +21°C° 0 mm 9 mps 736 mmHg 20%
    11:00 +23°C° 0 mm 9 mps 735 mmHg 18%
    12:00 +24°C° 0 mm 8 mps 735 mmHg 16%
    13:00 +27°C° 0 mm 8 mps 734 mmHg 14%
    14:00 +27°C° 0 mm 8 mps 734 mmHg 14%
    15:00 +27°C° 0 mm 8 mps 733 mmHg 13%
    16:00 +27°C° 0 mm 7 mps 733 mmHg 13%
    17:00 +24°C° 0 mm 6 mps 733 mmHg 15%
    18:00 +22°C° 0 mm 6 mps 733 mmHg 17%
    19:00 +21°C° 0 mm 5 mps 734 mmHg 19%
    20:00 +20°C° 0 mm 5 mps 734 mmHg 20%
    21:00 +19°C° 0 mm 5 mps 734 mmHg 22%
    22:00 +17°C° 0 mm 5 mps 735 mmHg 23%
    23:00 +17°C° 0 mm 5 mps 735 mmHg 25%

    Tomorrow, 20 December, Thursday

    Time Temperature Precipitation Wind Pressure Humidity
    00:00 +16°C° 0 mm 5 mps 735 mmHg 27%
    01:00 +15°C° 0 mm 5 mps 735 mmHg 28%
    02:00 +15°C° 0 mm 5 mps 734 mmHg 30%
    03:00 +15°C° 0 mm 5 mps 734 mmHg 31%
    04:00 +14°C° 0 mm 5 mps 734 mmHg 33%
    05:00 +14°C° 0 mm 5 mps 734 mmHg 34%
    06:00 +14°C° 0 mm 6 mps 735 mmHg 35%
    07:00 +14°C° 0 mm 6 mps 735 mmHg 36%
    08:00 +16°C° 0 mm 7 mps 735 mmHg 32%
    09:00 +19°C° 0 mm 9 mps 736 mmHg 28%
    10:00 +22°C° 0 mm 11 mps 736 mmHg 25%
    11:00 +23°C° 0 mm 10 mps 735 mmHg 23%
    12:00 +24°C° 0 mm 10 mps 735 mmHg 20%
    13:00 +27°C° 0 mm 9 mps 734 mmHg 18%
    14:00 +27°C° 0 mm 9 mps 734 mmHg 18%
    15:00 +27°C° 0 mm 8 mps 733 mmHg 18%
    16:00 +27°C° 0 mm 8 mps 733 mmHg 18%
    17:00 +24°C° 0 mm 7 mps 733 mmHg 20%
    18:00 +22°C° 0 mm 6 mps 733 mmHg 22%
    19:00 +21°C° 0 mm 5 mps 734 mmHg 25%
    20:00 +20°C° 0 mm 5 mps 734 mmHg 26%
    21:00 +19°C° 0 mm 5 mps 735 mmHg 27%
    22:00 +19°C° 0 mm 5 mps 735 mmHg 28%
    23:00 +17°C° 0 mm 5 mps 735 mmHg 29%

    Day after tomorrow, 21 December, Friday

    Time Temperature Precipitation Wind Pressure Humidity
    00:00 +16°C° 0 mm 5 mps 735 mmHg 30%
    01:00 +16°C° 0 mm 5 mps 734 mmHg 31%
    02:00 +15°C° 0 mm 5 mps 734 mmHg 32%
    03:00 +15°C° 0 mm 5 mps 734 mmHg 33%
    04:00 +14°C° 0 mm 5 mps 734 mmHg 34%
    05:00 +14°C° 0 mm 5 mps 734 mmHg 34%
    06:00 +14°C° 0 mm 5 mps 734 mmHg 35%
    07:00 +14°C° 0 mm 5 mps 735 mmHg 35%
    08:00 +16°C° 0 mm 7 mps 735 mmHg 31%
    09:00 +18°C° 0 mm 8 mps 735 mmHg 27%
    10:00 +21°C° 0 mm 10 mps 736 mmHg 23%
    11:00 +23°C° 0 mm 9 mps 735 mmHg 21%
    12:00 +24°C° 0 mm 9 mps 734 mmHg 18%
    13:00 +26°C° 0 mm 9 mps 734 mmHg 16%
    14:00 +26°C° 0 mm 8 mps 733 mmHg 15%
    15:00 +26°C° 0 mm 8 mps 733 mmHg 15%
    16:00 +26°C° 0 mm 7 mps 732 mmHg 14%
    17:00 +24°C° 0 mm 6 mps 733 mmHg 16%
    18:00 +22°C° 0 mm 6 mps 733 mmHg 18%
    19:00 +20°C° 0 mm 5 mps 733 mmHg 20%
    20:00 +20°C° 0 mm 5 mps 734 mmHg 21%
    21:00 +19°C° 0 mm 5 mps 734 mmHg 21%
    22:00 +17°C° 0 mm 5 mps 734 mmHg 22%
    23:00 +17°C° 0 mm 5 mps 734 mmHg 23%

    22 December, Saturday

    Time Temperature Precipitation Wind Pressure Humidity
    00:00 +16°C° 0 mm 5 mps 734 mmHg 25%
    01:00 +16°C° 0 mm 5 mps 734 mmHg 26%
    02:00 +15°C° 0 mm 5 mps 733 mmHg 27%
    03:00 +15°C° 0 mm 5 mps 733 mmHg 28%
    04:00 +14°C° 0 mm 5 mps 733 mmHg 29%
    05:00 +14°C° 0 mm 5 mps 733 mmHg 28%
    06:00 +14°C° 0 mm 5 mps 733 mmHg 28%
    07:00 +14°C° 0 mm 5 mps 734 mmHg 28%
    08:00 +16°C° 0 mm 7 mps 734 mmHg 24%
    09:00 +18°C° 0 mm 8 mps 734 mmHg 21%
    10:00 +21°C° 0 mm 10 mps 735 mmHg 17%
    11:00 +22°C° 0 mm 9 mps 734 mmHg 16%
    12:00 +23°C° 0 mm 9 mps 733 mmHg 15%
    13:00 +26°C° 0 mm 8 mps 733 mmHg 13%
    14:00 +26°C° 0 mm 8 mps 732 mmHg 13%
    15:00 +26°C° 0 mm 8 mps 732 mmHg 13%
    16:00 +26°C° 0 mm 7 mps 732 mmHg 13%
    17:00 +23°C° 0 mm 6 mps 732 mmHg 15%
    18:00 +21°C° 0 mm 5 mps 732 mmHg 16%
    19:00 +20°C° 0 mm 5 mps 733 mmHg 18%
    20:00 +19°C° 0 mm 5 mps 733 mmHg 19%
    21:00 +17°C° 0 mm 5 mps 733 mmHg 20%
    22:00 +17°C° 0 mm 5 mps 734 mmHg 22%
    23:00 +16°C° 0 mm 5 mps 733 mmHg 23%

    23 December, Sunday

    Time Temperature Precipitation Wind Pressure Humidity
    00:00 +15°C° 0 mm 5 mps 733 mmHg 25%
    01:00 +15°C° 0 mm 5 mps 733 mmHg 26%
    02:00 +14°C° 0 mm 5 mps 733 mmHg 27%
    03:00 +14°C° 0 mm 5 mps 732 mmHg 29%
    04:00 +13°C° 0 mm 5 mps 732 mmHg 30%
    05:00 +13°C° 0 mm 5 mps 733 mmHg 31%
    06:00 +13°C° 0 mm 5 mps 733 mmHg 32%
    07:00 +13°C° 0 mm 5 mps 734 mmHg 32%
    08:00 +15°C° 0 mm 7 mps 734 mmHg 29%
    09:00 +17°C° 0 mm 8 mps 734 mmHg 25%
    10:00 +21°C° 0 mm 10 mps 735 mmHg 21%
    11:00 +22°C° 0 mm 9 mps 734 mmHg 19%
    12:00 +23°C° 0 mm 9 mps 733 mmHg 18%
    13:00 +24°C° 0 mm 8 mps 733 mmHg 16%
    14:00 +24°C° 0 mm 8 mps 732 mmHg 16%
    15:00 +24°C° 0 mm 8 mps 732 mmHg 15%
    16:00 +26°C° 0 mm 7 mps 732 mmHg 15%
    17:00 +23°C° 0 mm 6 mps 732 mmHg 17%
    18:00 +21°C° 0 mm 6 mps 732 mmHg 20%
    19:00 +19°C° 0 mm 5 mps 733 mmHg 22%
    20:00 +19°C° 0 mm 5 mps 733 mmHg 23%
    21:00 +17°C° 0 mm 5 mps 733 mmHg 25%
    22:00 +17°C° 0 mm 5 mps 734 mmHg 26%
    23:00 +16°C° 0 mm 5 mps 734 mmHg 28%

    24 December, Monday

    Time Temperature Precipitation Wind Pressure Humidity
    00:00 +15°C° 0 mm 5 mps 733 mmHg 29%
    01:00 +15°C° 0 mm 5 mps 733 mmHg 31%
    02:00 +14°C° 0 mm 5 mps 733 mmHg 33%
    03:00 +14°C° 0 mm 5 mps 733 mmHg 35%
    04:00 +13°C° 0 mm 5 mps 732 mmHg 37%
    05:00 +13°C° 0 mm 5 mps 733 mmHg 38%
    06:00 +13°C° 0 mm 5 mps 733 mmHg 38%
    07:00 +13°C° 0 mm 5 mps 733 mmHg 39%
    08:00 +15°C° 0 mm 7 mps 734 mmHg 34%
    09:00 +17°C° 0 mm 8 mps 734 mmHg 29%
    10:00 +21°C° 0 mm 9 mps 735 mmHg 24%
    11:00 +22°C° 0 mm 9 mps 734 mmHg 22%
    12:00 +23°C° 0 mm 9 mps 733 mmHg 20%
    13:00 +24°C° 0 mm 8 mps 732 mmHg 19%
    14:00 +24°C° 0 mm 8 mps 732 mmHg 18%
    15:00 +24°C° 0 mm 7 mps 732 mmHg 18%
    16:00 +26°C° 0 mm 7 mps 731 mmHg 18%
    17:00 +23°C° 0 mm 6 mps 732 mmHg 20%
    18:00 +22°C° 0 mm 5 mps 732 mmHg 22%
    19:00 +20°C° 0 mm 5 mps 732 mmHg 24%
    20:00 +19°C° 0 mm 4 mps 733 mmHg 25%
    21:00 +19°C° 0 mm 4 mps 733 mmHg 26%
    22:00 +18°C° 0 mm 4 mps 733 mmHg 27%
    23:00 +18°C° 0 mm 4 mps 733 mmHg 28%
    Show more